﻿測定場所 (Monitoring sites),日付 (Measurement date),時間 (Measurement time),線量率 最大値 (max) μGy/h,線量率 最小値 (min) μGy/h,線量率 平均値 (average) μGy/h,
大田 (Ota),2018-06-17,23:01～24:00,0.0364,0.0326,0.0346,
大田 (Ota),2018-06-17,22:01～23:00,0.0370,0.0328,0.0345,
大田 (Ota),2018-06-17,21:01～22:00,0.0368,0.0322,0.0346,
大田 (Ota),2018-06-17,20:01～21:00,0.0362,0.0324,0.0344,
大田 (Ota),2018-06-17,19:01～20:00,0.0386,0.0323,0.0346,
大田 (Ota),2018-06-17,18:01～19:00,0.0366,0.0330,0.0346,
大田 (Ota),2018-06-17,17:01～18:00,0.0370,0.0327,0.0346,
大田 (Ota),2018-06-17,16:01～17:00,0.0368,0.0320,0.0347,
大田 (Ota),2018-06-17,15:01～16:00,0.0362,0.0321,0.0344,
大田 (Ota),2018-06-17,14:01～15:00,0.0360,0.0319,0.0344,
大田 (Ota),2018-06-17,13:01～14:00,0.0368,0.0324,0.0345,
大田 (Ota),2018-06-17,12:01～13:00,0.0383,0.0324,0.0346,
大田 (Ota),2018-06-17,11:01～12:00,0.0363,0.0322,0.0346,
大田 (Ota),2018-06-17,10:01～11:00,0.0365,0.0321,0.0346,
大田 (Ota),2018-06-17,09:01～10:00,0.0362,0.0325,0.0345,
大田 (Ota),2018-06-17,08:01～09:00,0.0360,0.0324,0.0343,
大田 (Ota),2018-06-17,07:01～08:00,0.0365,0.0316,0.0344,
大田 (Ota),2018-06-17,06:01～07:00,0.0362,0.0323,0.0344,
大田 (Ota),2018-06-17,05:01～06:00,0.0367,0.0327,0.0345,
大田 (Ota),2018-06-17,04:01～05:00,0.0361,0.0326,0.0343,
大田 (Ota),2018-06-17,03:01～04:00,0.0363,0.0325,0.0343,
大田 (Ota),2018-06-17,02:01～03:00,0.0365,0.0327,0.0343,
大田 (Ota),2018-06-17,01:01～02:00,0.0362,0.0326,0.0344,
大田 (Ota),2018-06-17,00:01～01:00,0.0360,0.0322,0.0343,
大田 (Ota),2018-06-16,23:01～24:00,0.0360,0.0324,0.0343,
大田 (Ota),2018-06-16,22:01～23:00,0.0363,0.0325,0.0344,
大田 (Ota),2018-06-16,21:01～22:00,0.0361,0.0323,0.0340,
大田 (Ota),2018-06-16,20:01～21:00,0.0364,0.0323,0.0340,
大田 (Ota),2018-06-16,19:01～20:00,0.0365,0.0329,0.0346,
大田 (Ota),2018-06-16,18:01～19:00,0.0365,0.0326,0.0341,
大田 (Ota),2018-06-16,17:01～18:00,0.0364,0.0319,0.0342,
大田 (Ota),2018-06-16,16:01～17:00,0.0365,0.0318,0.0340,
大田 (Ota),2018-06-16,15:01～16:00,0.0365,0.0318,0.0341,
大田 (Ota),2018-06-16,14:01～15:00,0.0362,0.0327,0.0343,
大田 (Ota),2018-06-16,13:01～14:00,0.0371,0.0322,0.0342,
大田 (Ota),2018-06-16,12:01～13:00,0.0358,0.0315,0.0341,
大田 (Ota),2018-06-16,11:01～12:00,0.0371,0.0324,0.0344,
大田 (Ota),2018-06-16,10:01～11:00,0.0368,0.0325,0.0346,
大田 (Ota),2018-06-16,09:01～10:00,0.0371,0.0328,0.0350,
大田 (Ota),2018-06-16,08:01～09:00,0.0371,0.0328,0.0354,
大田 (Ota),2018-06-16,07:01～08:00,0.0366,0.0335,0.0351,
大田 (Ota),2018-06-16,06:01～07:00,0.0388,0.0340,0.0361,
大田 (Ota),2018-06-16,05:01～06:00,0.0439,0.0362,0.0399,
大田 (Ota),2018-06-16,04:01～05:00,0.0437,0.0364,0.0396,
大田 (Ota),2018-06-16,03:01～04:00,0.0402,0.0340,0.0364,
大田 (Ota),2018-06-16,02:01～03:00,0.0362,0.0331,0.0349,
大田 (Ota),2018-06-16,01:01～02:00,0.0364,0.0327,0.0348,
大田 (Ota),2018-06-16,00:01～01:00,0.0366,0.0327,0.0348,
大田 (Ota),2018-06-15,23:01～24:00,0.0366,0.0318,0.0345,
大田 (Ota),2018-06-15,22:01～23:00,0.0363,0.0325,0.0344,
大田 (Ota),2018-06-15,21:01～22:00,0.0370,0.0317,0.0342,
大田 (Ota),2018-06-15,20:01～21:00,0.0363,0.0321,0.0343,
大田 (Ota),2018-06-15,19:01～20:00,0.0368,0.0317,0.0344,
大田 (Ota),2018-06-15,18:01～19:00,0.0363,0.0325,0.0343,
大田 (Ota),2018-06-15,17:01～18:00,0.0365,0.0324,0.0345,
大田 (Ota),2018-06-15,16:01～17:00,0.0362,0.0327,0.0347,
大田 (Ota),2018-06-15,15:01～16:00,0.0388,0.0334,0.0359,
大田 (Ota),2018-06-15,14:01～15:00,0.0411,0.0348,0.0380,
大田 (Ota),2018-06-15,13:01～14:00,0.0437,0.0370,0.0401,
大田 (Ota),2018-06-15,12:01～13:00,0.0469,0.0382,0.0421,
大田 (Ota),2018-06-15,11:01～12:00,0.0472,0.0360,0.0420,
大田 (Ota),2018-06-15,10:01～11:00,0.0413,0.0361,0.0382,
大田 (Ota),2018-06-15,09:01～10:00,0.0404,0.0344,0.0370,
大田 (Ota),2018-06-15,08:01～09:00,0.0370,0.0327,0.0352,
大田 (Ota),2018-06-15,07:01～08:00,0.0366,0.0327,0.0349,
大田 (Ota),2018-06-15,06:01～07:00,0.0366,0.0323,0.0349,
大田 (Ota),2018-06-15,05:01～06:00,0.0371,0.0331,0.0351,
大田 (Ota),2018-06-15,04:01～05:00,0.0373,0.0320,0.0348,
大田 (Ota),2018-06-15,03:01～04:00,0.0366,0.0334,0.0350,
大田 (Ota),2018-06-15,02:01～03:00,0.0370,0.0327,0.0348,
大田 (Ota),2018-06-15,01:01～02:00,0.0369,0.0330,0.0347,
大田 (Ota),2018-06-15,00:01～01:00,0.0365,0.0325,0.0347,
大田 (Ota),2018-06-14,23:01～24:00,0.0375,0.0321,0.0348,
大田 (Ota),2018-06-14,22:01～23:00,0.0367,0.0327,0.0347,
大田 (Ota),2018-06-14,21:01～22:00,0.0367,0.0320,0.0349,
大田 (Ota),2018-06-14,20:01～21:00,0.0364,0.0324,0.0349,
大田 (Ota),2018-06-14,19:01～20:00,0.0366,0.0324,0.0349,
大田 (Ota),2018-06-14,18:01～19:00,0.0372,0.0327,0.0345,
大田 (Ota),2018-06-14,17:01～18:00,0.0369,0.0333,0.0350,
大田 (Ota),2018-06-14,16:01～17:00,0.0366,0.0327,0.0348,
大田 (Ota),2018-06-14,15:01～16:00,0.0370,0.0327,0.0348,
大田 (Ota),2018-06-14,14:01～15:00,0.0373,0.0325,0.0347,
大田 (Ota),2018-06-14,13:01～14:00,0.0368,0.0331,0.0350,
大田 (Ota),2018-06-14,12:01～13:00,0.0372,0.0318,0.0350,
大田 (Ota),2018-06-14,11:01～12:00,0.0372,0.0327,0.0349,
大田 (Ota),2018-06-14,10:01～11:00,0.0371,0.0323,0.0350,
大田 (Ota),2018-06-14,09:01～10:00,0.0367,0.0315,0.0347,
大田 (Ota),2018-06-14,08:01～09:00,0.0372,0.0333,0.0353,
大田 (Ota),2018-06-14,07:01～08:00,0.0379,0.0324,0.0352,
大田 (Ota),2018-06-14,06:01～07:00,0.0367,0.0330,0.0350,
大田 (Ota),2018-06-14,05:01～06:00,0.0369,0.0332,0.0348,
大田 (Ota),2018-06-14,04:01～05:00,0.0372,0.0314,0.0349,
大田 (Ota),2018-06-14,03:01～04:00,0.0396,0.0322,0.0350,
大田 (Ota),2018-06-14,02:01～03:00,0.0370,0.0333,0.0353,
大田 (Ota),2018-06-14,01:01～02:00,0.0377,0.0327,0.0352,
大田 (Ota),2018-06-14,00:01～01:00,0.0364,0.0333,0.0350,
大田 (Ota),2018-06-13,23:01～24:00,0.0366,0.0326,0.0346,
大田 (Ota),2018-06-13,22:01～23:00,0.0369,0.0317,0.0346,
大田 (Ota),2018-06-13,21:01～22:00,0.0368,0.0328,0.0347,
大田 (Ota),2018-06-13,20:01～21:00,0.0366,0.0333,0.0349,
大田 (Ota),2018-06-13,19:01～20:00,0.0369,0.0335,0.0350,
大田 (Ota),2018-06-13,18:01～19:00,0.0365,0.0330,0.0348,
大田 (Ota),2018-06-13,17:01～18:00,0.0370,0.0326,0.0348,
大田 (Ota),2018-06-13,16:01～17:00,0.0367,0.0327,0.0349,
大田 (Ota),2018-06-13,15:01～16:00,0.0374,0.0331,0.0351,
大田 (Ota),2018-06-13,14:01～15:00,0.0368,0.0328,0.0347,
大田 (Ota),2018-06-13,13:01～14:00,0.0367,0.0331,0.0349,
大田 (Ota),2018-06-13,12:01～13:00,0.0368,0.0332,0.0353,
大田 (Ota),2018-06-13,11:01～12:00,0.0373,0.0335,0.0351,
大田 (Ota),2018-06-13,10:01～11:00,0.0377,0.0324,0.0347,
大田 (Ota),2018-06-13,09:01～10:00,0.0363,0.0323,0.0347,
大田 (Ota),2018-06-13,08:01～09:00,0.0362,0.0333,0.0348,
大田 (Ota),2018-06-13,07:01～08:00,0.0366,0.0324,0.0348,
大田 (Ota),2018-06-13,06:01～07:00,0.0369,0.0328,0.0348,
大田 (Ota),2018-06-13,05:01～06:00,0.0367,0.0324,0.0345,
大田 (Ota),2018-06-13,04:01～05:00,0.0365,0.0326,0.0345,
大田 (Ota),2018-06-13,03:01～04:00,0.0372,0.0326,0.0347,
大田 (Ota),2018-06-13,02:01～03:00,0.0369,0.0324,0.0348,
大田 (Ota),2018-06-13,01:01～02:00,0.0364,0.0324,0.0347,
大田 (Ota),2018-06-13,00:01～01:00,0.0367,0.0329,0.0346,
大田 (Ota),2018-06-12,23:01～24:00,0.0369,0.0322,0.0346,
大田 (Ota),2018-06-12,22:01～23:00,0.0366,0.0320,0.0344,
大田 (Ota),2018-06-12,21:01～22:00,0.0365,0.0324,0.0346,
大田 (Ota),2018-06-12,20:01～21:00,0.0368,0.0330,0.0345,
大田 (Ota),2018-06-12,19:01～20:00,0.0366,0.0328,0.0345,
大田 (Ota),2018-06-12,18:01～19:00,0.0364,0.0328,0.0347,
大田 (Ota),2018-06-12,17:01～18:00,0.0367,0.0324,0.0346,
大田 (Ota),2018-06-12,16:01～17:00,0.0374,0.0326,0.0352,
大田 (Ota),2018-06-12,15:01～16:00,0.0370,0.0334,0.0350,
大田 (Ota),2018-06-12,14:01～15:00,0.0373,0.0330,0.0351,
大田 (Ota),2018-06-12,13:01～14:00,0.0362,0.0329,0.0347,
大田 (Ota),2018-06-12,12:01～13:00,0.0365,0.0320,0.0345,
大田 (Ota),2018-06-12,11:01～12:00,0.0368,0.0321,0.0347,
大田 (Ota),2018-06-12,10:01～11:00,0.0376,0.0323,0.0346,
大田 (Ota),2018-06-12,09:01～10:00,0.0366,0.0324,0.0342,
大田 (Ota),2018-06-12,08:01～09:00,0.0370,0.0320,0.0345,
大田 (Ota),2018-06-12,07:01～08:00,0.0365,0.0329,0.0346,
大田 (Ota),2018-06-12,06:01～07:00,0.0365,0.0315,0.0345,
大田 (Ota),2018-06-12,05:01～06:00,0.0371,0.0322,0.0346,
大田 (Ota),2018-06-12,04:01～05:00,0.0370,0.0322,0.0345,
大田 (Ota),2018-06-12,03:01～04:00,0.0365,0.0330,0.0346,
大田 (Ota),2018-06-12,02:01～03:00,0.0370,0.0326,0.0345,
大田 (Ota),2018-06-12,01:01～02:00,0.0368,0.0328,0.0346,
大田 (Ota),2018-06-12,00:01～01:00,0.0359,0.0322,0.0343,
大田 (Ota),2018-06-11,23:01～24:00,0.0366,0.0321,0.0344,
大田 (Ota),2018-06-11,22:01～23:00,0.0362,0.0327,0.0345,
大田 (Ota),2018-06-11,21:01～22:00,0.0366,0.0324,0.0342,
大田 (Ota),2018-06-11,20:01～21:00,0.0365,0.0323,0.0344,
大田 (Ota),2018-06-11,19:01～20:00,0.0367,0.0331,0.0348,
大田 (Ota),2018-06-11,18:01～19:00,0.0374,0.0331,0.0354,
大田 (Ota),2018-06-11,17:01～18:00,0.0393,0.0339,0.0359,
大田 (Ota),2018-06-11,16:01～17:00,0.0402,0.0346,0.0364,
大田 (Ota),2018-06-11,15:01～16:00,0.0421,0.0349,0.0373,
大田 (Ota),2018-06-11,14:01～15:00,0.0423,0.0362,0.0392,
大田 (Ota),2018-06-11,13:01～14:00,0.0432,0.0368,0.0403,
大田 (Ota),2018-06-11,12:01～13:00,0.0426,0.0368,0.0398,
大田 (Ota),2018-06-11,11:01～12:00,0.0421,0.0362,0.0387,
大田 (Ota),2018-06-11,10:01～11:00,0.0425,0.0350,0.0391,
大田 (Ota),2018-06-11,09:01～10:00,0.0426,0.0361,0.0390,
大田 (Ota),2018-06-11,08:01～09:00,0.0458,0.0380,0.0418,
大田 (Ota),2018-06-11,07:01～08:00,0.0456,0.0388,0.0424,
大田 (Ota),2018-06-11,06:01～07:00,0.0445,0.0383,0.0415,
大田 (Ota),2018-06-11,05:01～06:00,0.0440,0.0382,0.0413,
大田 (Ota),2018-06-11,04:01～05:00,0.0446,0.0366,0.0418,
大田 (Ota),2018-06-11,03:01～04:00,0.0490,0.0396,0.0432,
大田 (Ota),2018-06-11,02:01～03:00,0.0486,0.0412,0.0447,
大田 (Ota),2018-06-11,01:01～02:00,0.0500,0.0436,0.0467,
大田 (Ota),2018-06-11,00:01～01:00,0.0541,0.0415,0.0470,
